#timestamp,LO_Frequency,Hit,StdDev 
1619510415.9,286046997.3,N
1619510435.7,286046998.0,N
1619510455.5,286046995.3,N
1619510475.4,286046994.9,N
1619510495.2,286046995.3,N
1619510515.1,286046997.3,N
1619510516.0,286046997.3,N
1619510535.8,286046998.9,N
1619510555.6,286046999.0,N
1619510575.5,286046996.7,N
1619510595.3,286046993.8,Y
1619510615.1,286046996.8,P
1619510635.9,286046997.7,P
1619510655.7,286046999.1,N
1619510675.6,286046998.4,N
1619510695.4,286046997.4,Y
1619510715.2,286046998.7,P
1619510735.1,286046997.0,P
1619510736.0,286046997.0,P
1619510755.8,286046997.9,Y
1619510775.7,286046998.3,P
1619510795.5,286047000.7,N
1619510815.3,286046999.9,N
1619510835.2,286047000.9,N
1619510855.0,286047001.1,N
1619510855.9,286047001.1,N
1619510875.7,286047002.7,N
1619510895.6,286047000.1,N
1619510915.4,286047002.7,N
1619510935.3,286047003.8,N
1619510955.1,286047004.5,N
1619510956.0,286047004.5,N
1619510975.8,286047005.5,N
1619510995.7,286047004.7,N
1619511015.5,286047003.0,N
1619511035.3,286047002.2,N
1619511055.2,286046999.8,N
1619511075.0,286047000.5,N
1619511075.9,286047000.5,N
1619511095.8,286047000.2,N
1619511115.6,286046999.8,N
1619511135.4,286047003.2,N
1619511155.3,286047002.9,N
1619511175.1,286047003.8,N
1619511195.9,286047005.9,N
1619511215.7,286047004.0,N
1619511235.5,286047003.1,N
1619511255.4,286047004.3,N
1619511275.2,286047001.6,N
1619511295.0,286047000.6,N
1619511295.9,286047000.6,N
1619511315.8,286047000.3,N
1619511335.6,286047001.2,N
1619511355.5,286047011.9,Y
1619511375.3,286047002.4,P
1619511395.1,286046998.1,P
1619511415.9,286047001.9,N
1619511435.7,286047001.3,N
1619511455.5,286047001.0,N
1619511475.4,286047000.7,N
1619511495.2,286047002.3,N
1619511515.1,286047001.3,N
1619511516.0,286047001.3,N
1619511535.8,286047002.1,N
1619511555.6,286047004.1,Y
1619511575.5,286046996.6,P
1619511595.3,286046999.0,N
1619511615.2,286046999.1,N
1619511635.9,286046997.5,N
1619511655.7,286046995.5,N
1619511675.6,286046994.5,N
1619511695.4,286046994.9,N
1619511715.2,286047000.1,N
1619511735.1,286047001.6,N
1619511736.0,286047001.6,N
1619511755.8,286047002.3,N
1619511775.7,286047001.4,N
1619511795.5,286047000.2,N
1619511815.3,286046999.4,N
1619511835.2,286046997.1,N
1619511855.0,286046998.1,N
1619511855.9,286046998.1,N
1619511875.7,286047000.6,N
1619511895.6,286046996.7,N
1619511915.4,286046997.2,N
1619511935.3,286046999.1,N
1619511955.1,286046999.6,N
1619511956.0,286046999.6,N
1619511975.8,286047000.1,N
1619511995.7,286047000.1,N
1619512015.5,286046999.9,N
1619512035.3,286046998.2,N
1619512055.2,286046999.6,N
1619512075.0,286046998.4,N
1619512075.9,286046998.4,N
1619512095.8,286046998.0,N
1619512115.6,286046996.7,N
1619512135.4,286047000.0,N
1619512155.3,286047001.8,N
1619512175.1,286047004.4,N
1619512195.9,286047000.5,N
1619512215.7,286047000.4,N
1619512235.5,286047002.8,N
1619512255.4,286047000.2,N
1619512275.2,286046999.7,N
1619512295.0,286046998.3,N
1619512295.9,286046998.3,N
1619512315.8,286047002.3,N
1619512335.6,286047004.2,N
1619512355.5,286047001.7,N
1619512375.3,286046999.8,N
1619512395.1,286047002.8,N
1619512415.9,286047000.3,N
1619512435.7,286047000.9,N
1619512455.5,286046999.0,N
1619512475.4,286046998.4,N
1619512495.2,286046996.6,N
1619512515.1,286046996.8,N
1619512516.0,286046996.8,N
1619512535.8,286046996.8,N
1619512555.6,286046995.6,N
1619512575.5,286046993.6,N
1619512595.3,286046994.6,N
1619512615.1,286046994.4,N
1619512635.9,286046999.4,N
1619512655.7,286046999.0,N
1619512675.6,286046999.3,N
1619512695.4,286046999.9,N
1619512715.2,286046996.9,N
1619512735.1,286046997.9,N
1619512736.0,286046997.9,N
1619512755.8,286046997.2,N
1619512775.6,286046997.7,N
1619512795.5,286046997.1,N
1619512815.3,286046999.6,N
1619512835.2,286046999.2,N
1619512855.0,286046996.7,N
1619512855.9,286046996.7,N
1619512875.7,286046994.0,N
1619512895.6,286046994.4,N
1619512915.4,286046993.4,Y
1619512935.3,286046996.2,P
1619512955.1,286046995.9,P
1619512975.8,286046995.1,P
1619512995.7,286046993.5,Y
1619513015.5,286046998.9,P
1619513035.4,286046996.5,N
1619513055.2,286046997.2,N
1619513075.0,286046995.8,Y
1619513075.9,286046995.8,P
1619513095.8,286046997.4,P
1619513115.6,286046996.6,P
1619513135.4,286047000.6,N
1619513155.3,286047002.3,N
1619513175.1,286047004.3,N
1619513195.9,286047002.1,N
1619513215.7,286047000.4,N
1619513235.5,286047000.8,N
1619513255.4,286046996.6,N
1619513275.2,286046995.2,N
1619513295.0,286047001.9,N
1619513296.0,286047001.9,N
1619513315.8,286047001.7,N
1619513335.6,286047002.0,N
1619513355.5,286047002.3,N
1619513375.3,286047001.5,N
1619513395.1,286047001.9,N
1619513415.9,286047002.1,N
1619513435.7,286046998.5,N
1619513455.6,286046999.4,N
1619513475.4,286046998.9,N
1619513495.2,286046998.1,N
1619513515.1,286046996.7,N
1619513516.0,286046996.7,N
1619513535.8,286046997.6,N
1619513555.6,286046997.3,N
1619513575.5,286046995.2,N
1619513595.3,286046996.7,N
1619513615.2,286046999.4,N
1619513635.0,286046998.8,N
1619513635.9,286046998.8,N
1619513655.8,286046998.3,N
1619513675.6,286047001.1,N
1619513695.4,286047000.8,N
1619513715.3,286047000.8,N
1619513735.1,286047000.9,N
1619513755.8,286046998.7,N
1619513775.7,286046996.6,N
1619513795.5,286046999.3,N
1619513815.4,286046998.8,N
1619513835.2,286046998.5,N
1619513855.0,286047002.7,N
1619513855.9,286047002.7,N
1619513875.8,286047000.0,N
1619513895.6,286047001.9,N
1619513915.5,286046999.9,N
1619513935.3,286047000.3,N
1619513955.1,286047002.6,N
1619513975.9,286046999.7,N
1619513995.7,286046999.9,N
